Weather History for Defiance, OH

Change the Weather History Date:

Saturday, November 24, 2012

  Actual Average Record
Temperature  
Mean Temperature 32 °F -  
Max Temperature 33 °F 45 °F 65 °F (1974)
Min Temperature 30 °F 27 °F 0 °F (1950)
Degree Days  
Heating Degree Days 34    
Moisture  
Dew Point 22 °F    
Average Humidity 66    
Maximum Humidity 72    
Minimum Humidity 59    
Precipitation  
Precipitation 0.00 in - - ()
Sea Level Pressure  
Sea Level Pressure 30.14 in    
Wind  
Wind Speed 7 mph (West)    
Max Wind Speed 13 mph    
Max Gust Speed 21 mph    
Visibility 10 miles    
Events Snow    
Averages and records for this station are not official NWS values.
T = Trace of Precipitation, MM = Missing Value Source: NWS Daily Summary

Daily Weather History Graph

Daily Weather History Graph

Search for Another Location

Airport:

Trip Planner

Search our weather history database for the weather conditions in past years. The results will help you decide how hot, cold, wet, or windy it might be!

Date:

Astronomy

Nov. 24, 2012 Rise Set
Actual Time 7:37 AM EST 5:11 PM EST
Civil Twilight 7:06 AM EST 5:42 PM EST
Nautical Twilight 6:32 AM EST 6:16 PM EST
Astronomical Twilight 5:59 AM EST 6:49 PM EST
Moon 2:57 PM EST (11/24) 3:51 AM EST (11/24)
Length of Visible Light 10h 35m
Length of Day
9h 34m
Waxing Gibbous, 87% of the Moon is Illuminated
Nov 24
Waxing Gibbous
Nov 28
Full
Dec 6
Last Quarter
Dec 13
New
Dec 20
First Quarter

Hourly Weather History & Observations

Time (EST) Temp. Windchill Dew Point Humidity Pressure Visibility Wind Dir Wind Speed Gust Speed Precip Events Conditions
12:53 AM 30.9 °F 22.2 °F 21.9 °F 69% 30.11 in 10.0 mi WSW 10.4 mph 17.3 mph N/A   Overcast
1:53 AM 30.9 °F 23.5 °F 21.9 °F 69% 30.11 in 10.0 mi WSW 8.1 mph 16.1 mph N/A   Overcast
2:53 AM 33.1 °F 27.7 °F 21.9 °F 64% 30.12 in 10.0 mi WNW 5.8 mph 16.1 mph N/A   Overcast
3:53 AM 33.1 °F 27.7 °F 23.0 °F 66% 30.12 in 10.0 mi Variable 5.8 mph - N/A   Overcast
4:53 AM 33.1 °F 23.9 °F 19.9 °F 59% 30.12 in 10.0 mi NW 12.7 mph 20.7 mph N/A   Overcast
5:53 AM 33.1 °F 26.9 °F 21.0 °F 61% 30.14 in 10.0 mi Variable 6.9 mph - N/A   Overcast
6:53 AM 32.0 °F 26.4 °F 21.0 °F 64% 30.14 in 10.0 mi Variable 5.8 mph - N/A   Overcast
7:53 AM 32.0 °F 26.4 °F 21.0 °F 64% 30.16 in 10.0 mi Variable 5.8 mph - N/A   Overcast
8:53 AM 32.0 °F 26.4 °F 21.9 °F 66% 30.17 in 10.0 mi West 5.8 mph - N/A   Overcast
9:45 AM 32.0 °F 26.4 °F 23.0 °F 69% 30.16 in 9.0 mi WNW 5.8 mph - 0.00 in Snow Light Snow
9:53 AM 32.0 °F 27.5 °F 23.0 °F 69% 30.18 in 10.0 mi Variable 4.6 mph - 0.00 in   Overcast
10:53 AM 32.0 °F 24.8 °F 23.0 °F 69% 30.19 in 10.0 mi WNW 8.1 mph - N/A   Overcast
11:53 AM 33.1 °F 27.7 °F 23.0 °F 66% 30.18 in 10.0 mi Variable 5.8 mph - N/A   Overcast
12:46 PM 33.8 °F 27.0 °F 21.2 °F 60% 30.14 in 10.0 mi West 8.1 mph - N/A   Overcast
12:53 PM 33.1 °F 26.9 °F 21.9 °F 64% 30.17 in 10.0 mi Variable 6.9 mph - N/A   Overcast
1:53 PM 33.1 °F 30.0 °F 21.0 °F 61% 30.16 in 10.0 mi Variable 3.5 mph 18.4 mph N/A   Overcast
2:53 PM 33.1 °F 27.7 °F 21.0 °F 61% 30.16 in 10.0 mi Variable 5.8 mph - N/A   Overcast
3:53 PM 33.1 °F 26.9 °F 21.0 °F 61% 30.16 in 10.0 mi Variable 6.9 mph - N/A   Overcast
4:53 PM 32.0 °F 24.2 °F 21.9 °F 66% 30.16 in 10.0 mi WSW 9.2 mph - N/A   Overcast
5:01 PM 32.0 °F 27.5 °F 21.2 °F 64% 30.13 in 10.0 mi Variable 4.6 mph - N/A   Overcast
5:36 PM 30.2 °F 21.9 °F 21.2 °F 69% 30.14 in 10.0 mi West 9.2 mph - N/A   Overcast
5:53 PM 30.9 °F 24.3 °F 21.9 °F 69% 30.16 in 10.0 mi WSW 6.9 mph - N/A   Overcast
6:53 PM 30.9 °F 26.2 °F 21.9 °F 69% 30.16 in 10.0 mi WSW 4.6 mph - N/A   Overcast
7:53 PM 30.0 °F 24.1 °F 21.9 °F 72% 30.15 in 10.0 mi WSW 5.8 mph - N/A   Overcast
8:09 PM 30.2 °F 24.3 °F 21.2 °F 69% 30.12 in 10.0 mi WSW 5.8 mph - N/A   Overcast
8:53 PM 30.0 °F 24.1 °F 21.0 °F 69% 30.14 in 10.0 mi WSW 5.8 mph - N/A   Overcast
9:53 PM 30.0 °F 25.2 °F 21.0 °F 69% 30.12 in 10.0 mi SW 4.6 mph - N/A   Overcast
10:53 PM 30.0 °F 24.1 °F 19.9 °F 66% 30.11 in 10.0 mi SW 5.8 mph - N/A   Overcast
11:53 PM 30.0 °F 22.4 °F 19.0 °F 64% 30.11 in 10.0 mi SW 8.1 mph - N/A   Overcast